Terminal Aerodrome Forecast
Issued by NWS

Home | Current Version | Previous Version | Graphics & Text | Print | Product List | Glossary On
Versions: 1 2 3 4 5 6 7 8 9 10 11 12 13 14 15 16 17 18 19 20 21 22 23 24 25 26 27 28 29 30 31 32 33 34 35 36 37 38
000
FTUS45 KGGW 060520
TAFGDV
TAF
KGDV 060520Z 0606/0706 23011KT P6SM BKN150
     FM061200 24013KT P6SM BKN150 WS020/28040KT
     FM061600 24016G23KT P6SM BKN250 WS020/28045KT
     FM062100 27028G40KT P6SM BKN250
      AMD LTD TO CLD VIS AND WIND=

USA.gov is the U.S. government's official web portal to all federal, state and local government web resources and services.